Вернуться в каталог

GJZ 03

АктивенВоенныеLEO
NORAD 62292·PAYLOAD·🇨🇳 China

Запущен Dec 12, 2024 с Jiuquan Satellite Launch Center

Loading…

Ближайшие Пролёты (ближайшие 24 часа)

TLE

СвежийSource: Space-Track

Эпоха: Sep 14, 2026, 15:00 UTC

1 62292U 24238C   26257.62560807 -.00000052  00000-0  69772-4 0  9999
2 62292  59.9158   0.2972 0025636  60.0306 300.3242 13.75216195 88197

Отслеживайте GJZ 03 в реальном времени с AllMySat

Download on the App Store